AEE412 LGKL-EFHK

Flight info

Callsign AEE412
Flight time 3h 51m
Altitude 24000
Route IPTAG J61 TRL A14 ARA/N0453F320 UL611 YNN/N0455F340 UL604 DIMIS DCT ALELU DCT PARAK DCT PITOK/N0456F350 DCT BOKSU DCT GUNTA M857 SOKVA DCT KEMET Q11 INTOR
Aircraft A320/M-SDE3FGHIRWY/LB1

Departure

Time 2026-04-23 13:02
Airport Kalamata Airport (LGKL)

Arrival

Time 2026-04-23 16:54
Airport Helsinki Vantaa Airport (EFHK)
Time Latitude Longitude Altitude Speed Heading
2026-04-23 12:31 37.05536 22.03337 35 ft 0 kts 120°
2026-04-23 12:54 37.05535 22.03338 34 ft 0 kts 127°
2026-04-23 12:55 37.05531 22.03337 34 ft 1 kts 172°
2026-04-23 12:55 37.05517 22.03329 34 ft 4 kts 200°
2026-04-23 12:55 37.05490 22.03294 35 ft 7 kts 250°
2026-04-23 12:55 37.05487 22.03233 35 ft 8 kts 287°
2026-04-23 12:56 37.05512 22.03169 35 ft 9 kts 287°
2026-04-23 12:56 37.05529 22.03092 35 ft 10 kts 285°
2026-04-23 12:56 37.05548 22.03003 33 ft 11 kts 288°
2026-04-23 12:56 37.05616 22.02952 34 ft 13 kts 348°
2026-04-23 12:57 37.05709 22.02930 31 ft 14 kts 349°
2026-04-23 12:57 37.05809 22.02907 31 ft 15 kts 349°
2026-04-23 12:57 37.05915 22.02882 34 ft 16 kts 350°
2026-04-23 12:57 37.06027 22.02856 34 ft 17 kts 349°
2026-04-23 12:58 37.06148 22.02828 34 ft 18 kts 349°
2026-04-23 12:58 37.06275 22.02798 33 ft 19 kts 350°
2026-04-23 12:58 37.06410 22.02767 34 ft 20 kts 349°
2026-04-23 12:58 37.06554 22.02733 33 ft 22 kts 350°
2026-04-23 12:59 37.06707 22.02697 33 ft 23 kts 349°
2026-04-23 12:59 37.06867 22.02660 34 ft 24 kts 348°
2026-04-23 12:59 37.07034 22.02620 34 ft 25 kts 349°
2026-04-23 12:59 37.07211 22.02580 33 ft 26 kts 349°
2026-04-23 13:00 37.07395 22.02539 32 ft 27 kts 349°
2026-04-23 13:00 37.07589 22.02493 33 ft 29 kts 348°
2026-04-23 13:00 37.07788 22.02446 33 ft 29 kts 350°
2026-04-23 13:00 37.07991 22.02398 35 ft 30 kts 349°
2026-04-23 13:01 37.08147 22.02362 34 ft 14 kts 349°
2026-04-23 13:01 37.08174 22.02272 34 ft 13 kts 257°
2026-04-23 13:01 37.08117 22.02242 35 ft 10 kts 169°
2026-04-23 13:01 37.08041 22.02260 36 ft 15 kts 169°
2026-04-23 13:02 37.07740 22.02330 32 ft 78 kts 169°
2026-04-23 13:02 37.07012 22.02500 34 ft 132 kts 169°
2026-04-23 13:02 37.05986 22.02737 247 ft 156 kts 169°
2026-04-23 13:02 37.04916 22.02984 909 ft 155 kts 170°
2026-04-23 13:03 37.03842 22.03239 1458 ft 159 kts 169°
2026-04-23 13:03 37.02732 22.03504 1924 ft 170 kts 170°
2026-04-23 13:03 37.01513 22.03785 2200 ft 187 kts 171°
2026-04-23 13:03 37.00167 22.04104 2426 ft 207 kts 171°
2026-04-23 13:04 36.98663 22.04457 2573 ft 233 kts 171°
2026-04-23 13:04 36.97058 22.04827 3271 ft 236 kts 171°
2026-04-23 13:04 36.95428 22.05200 3963 ft 241 kts 171°
2026-04-23 13:04 36.93768 22.05588 4656 ft 245 kts 171°
2026-04-23 13:05 36.92081 22.05985 5352 ft 249 kts 172°
2026-04-23 13:05 36.90364 22.06389 6070 ft 253 kts 171°
2026-04-23 13:05 36.88622 22.06799 6762 ft 257 kts 172°
2026-04-23 13:05 36.86795 22.06957 7102 ft 271 kts 193°
2026-04-23 13:06 36.83889 22.04218 8376 ft 271 kts 249°
2026-04-23 13:06 36.83529 22.01943 9074 ft 269 kts 276°
2026-04-23 13:06 36.84068 21.99734 9779 ft 269 kts 302°
2026-04-23 13:07 36.85383 21.98044 10238 ft 284 kts 326°
2026-04-23 13:07 36.87310 21.97150 10368 ft 311 kts 349°
2026-04-23 13:07 36.89547 21.96956 10511 ft 333 kts 354°
2026-04-23 13:07 36.91899 21.96867 10923 ft 341 kts 355°
2026-04-23 13:08 36.94280 21.96724 11451 ft 343 kts 347°
2026-04-23 13:08 36.96567 21.95936 12009 ft 342 kts 338°
2026-04-23 13:08 36.98830 21.94994 12622 ft 344 kts 337°
2026-04-23 13:08 37.01106 21.94037 13230 ft 346 kts 336°
2026-04-23 13:09 37.03386 21.93073 13874 ft 347 kts 336°
2026-04-23 13:09 37.05679 21.92102 14401 ft 349 kts 335°
2026-04-23 13:09 37.07989 21.91122 14898 ft 352 kts 335°
2026-04-23 13:09 37.10317 21.90135 15380 ft 355 kts 335°
2026-04-23 13:10 37.12670 21.89139 15871 ft 358 kts 335°
2026-04-23 13:10 37.15043 21.88136 16376 ft 361 kts 335°
2026-04-23 13:10 37.17435 21.87127 16905 ft 364 kts 334°
2026-04-23 13:10 37.19848 21.86108 17414 ft 367 kts 334°
2026-04-23 13:11 37.22272 21.85085 17860 ft 368 kts 334°
2026-04-23 13:11 37.24709 21.84054 18295 ft 371 kts 334°
2026-04-23 13:11 37.27051 21.83063 18712 ft 373 kts 334°
2026-04-23 13:11 37.29518 21.82020 19187 ft 375 kts 334°
2026-04-23 13:12 37.31997 21.80974 19654 ft 377 kts 334°
2026-04-23 13:12 37.34490 21.79920 20143 ft 379 kts 333°
2026-04-23 13:12 37.36990 21.78860 20584 ft 381 kts 333°
2026-04-23 13:12 37.39509 21.77790 21008 ft 383 kts 333°
2026-04-23 13:13 37.42039 21.76712 21433 ft 386 kts 333°
2026-04-23 13:13 37.44590 21.75625 21853 ft 388 kts 333°
2026-04-23 13:13 37.47151 21.74532 22247 ft 390 kts 333°
2026-04-23 13:13 37.49728 21.73431 22647 ft 392 kts 333°
2026-04-23 13:14 37.52320 21.72322 23049 ft 395 kts 333°
2026-04-23 13:14 37.54933 21.71207 23445 ft 397 kts 333°
2026-04-23 13:14 37.57557 21.70087 23763 ft 400 kts 333°
2026-04-23 13:14 37.60200 21.68961 24091 ft 402 kts 332°
2026-04-23 13:15 37.62857 21.67827 24394 ft 403 kts 332°
2026-04-23 13:15 37.65521 21.66690 24707 ft 405 kts 332°
2026-04-23 13:15 37.67329 21.65920 24908 ft 406 kts 332°
2026-04-23 13:15 37.70881 21.64403 25340 ft 408 kts 332°
2026-04-23 13:16 37.73577 21.63248 25661 ft 410 kts 332°
2026-04-23 13:16 37.76285 21.62087 25994 ft 411 kts 332°
2026-04-23 13:16 37.79001 21.60919 26319 ft 413 kts 332°
2026-04-23 13:16 37.81722 21.59746 26646 ft 415 kts 332°
2026-04-23 13:17 37.84460 21.58565 26999 ft 415 kts 332°
2026-04-23 13:17 37.87192 21.57392 27463 ft 414 kts 332°
2026-04-23 13:17 37.89911 21.56226 27950 ft 412 kts 332°
2026-04-23 13:17 37.91741 21.55440 28265 ft 411 kts 332°
2026-04-23 13:18 37.94441 21.54279 28730 ft 409 kts 332°
2026-04-23 13:18 37.97134 21.53118 29186 ft 408 kts 332°
2026-04-23 13:18 37.99811 21.51959 29680 ft 406 kts 331°
2026-04-23 13:18 38.02479 21.50801 30132 ft 405 kts 331°
2026-04-23 13:19 38.05095 21.49670 30525 ft 404 kts 331°
2026-04-23 13:19 38.07797 21.48502 30930 ft 402 kts 331°
2026-04-23 13:19 38.10442 21.47357 31323 ft 401 kts 331°
2026-04-23 13:19 38.13080 21.46213 31716 ft 400 kts 331°
2026-04-23 13:20 38.15707 21.45072 32094 ft 399 kts 331°
2026-04-23 13:20 38.18330 21.43929 32483 ft 398 kts 332°
2026-04-23 13:20 38.20944 21.42789 32863 ft 397 kts 332°
2026-04-23 13:20 38.23553 21.41652 33232 ft 396 kts 332°
2026-04-23 13:21 38.26157 21.40519 33587 ft 395 kts 332°
2026-04-23 13:21 38.28759 21.39390 33887 ft 396 kts 332°
2026-04-23 13:21 38.31372 21.38252 33964 ft 400 kts 332°
2026-04-23 13:22 38.36721 21.35901 33956 ft 413 kts 333°
2026-04-23 13:22 38.42186 21.33508 33958 ft 416 kts 333°
2026-04-23 13:23 38.47679 21.31123 33962 ft 418 kts 333°
2026-04-23 13:23 38.53185 21.28719 33966 ft 419 kts 333°
2026-04-23 13:24 38.58693 21.26289 33963 ft 419 kts 334°
2026-04-23 13:24 38.64203 21.23852 33966 ft 419 kts 334°
2026-04-23 13:25 38.69723 21.21422 33963 ft 420 kts 334°
2026-04-23 13:25 38.75251 21.18984 33960 ft 420 kts 334°
2026-04-23 13:26 38.80785 21.16535 33960 ft 421 kts 334°
2026-04-23 13:26 38.86321 21.14081 33964 ft 421 kts 334°
2026-04-23 13:27 38.91870 21.11621 33961 ft 422 kts 335°
2026-04-23 13:27 38.97424 21.09151 33965 ft 423 kts 335°
2026-04-23 13:28 39.02983 21.06675 33962 ft 423 kts 335°
2026-04-23 13:28 39.08548 21.04203 33959 ft 424 kts 335°
2026-04-23 13:29 39.14117 21.01719 33958 ft 424 kts 335°
2026-04-23 13:29 39.19690 20.99213 33958 ft 424 kts 335°
2026-04-23 13:30 39.25269 20.96707 33942 ft 425 kts 336°
2026-04-23 13:30 39.30858 20.94203 33948 ft 426 kts 336°
2026-04-23 13:31 39.36461 20.91686 33947 ft 426 kts 336°
2026-04-23 13:31 39.42063 20.89157 33959 ft 427 kts 336°
2026-04-23 13:32 39.47678 20.86625 33956 ft 428 kts 337°
2026-04-23 13:32 39.53304 20.84088 33958 ft 429 kts 337°
2026-04-23 13:33 39.58935 20.81530 33958 ft 429 kts 337°
2026-04-23 13:33 39.64577 20.78961 33963 ft 430 kts 337°
2026-04-23 13:34 39.70243 20.76400 33960 ft 431 kts 338°
2026-04-23 13:34 39.75911 20.73833 33962 ft 432 kts 338°
2026-04-23 13:35 39.81585 20.71250 33957 ft 432 kts 338°
2026-04-23 13:35 39.87269 20.68644 33955 ft 433 kts 338°
2026-04-23 13:36 39.92962 20.66034 33951 ft 434 kts 339°
2026-04-23 13:36 39.98665 20.63417 33949 ft 435 kts 339°
2026-04-23 13:37 40.04380 20.60798 33944 ft 436 kts 339°
2026-04-23 13:37 40.10200 20.58594 33945 ft 437 kts 346°
2026-04-23 13:38 40.16132 20.56827 33953 ft 438 kts 346°
2026-04-23 13:38 40.22076 20.55052 33953 ft 438 kts 346°
2026-04-23 13:39 40.28022 20.53272 33960 ft 438 kts 346°
2026-04-23 13:39 40.33967 20.51489 33968 ft 438 kts 346°
2026-04-23 13:40 40.39905 20.49704 33974 ft 438 kts 347°
2026-04-23 13:40 40.45844 20.47913 33978 ft 438 kts 347°
2026-04-23 13:41 40.51784 20.46122 33979 ft 438 kts 347°
2026-04-23 13:41 40.57720 20.44335 33978 ft 438 kts 348°
2026-04-23 13:42 40.63668 20.42536 33978 ft 438 kts 348°
2026-04-23 13:42 40.69617 20.40728 33976 ft 439 kts 348°
2026-04-23 13:43 40.75571 20.38925 33976 ft 440 kts 348°
2026-04-23 13:43 40.81540 20.37103 33977 ft 440 kts 348°
2026-04-23 13:44 40.87504 20.35268 33977 ft 440 kts 349°
2026-04-23 13:44 40.93477 20.33443 33986 ft 441 kts 349°
2026-04-23 13:45 40.98442 20.31936 33984 ft 440 kts 349°
2026-04-23 13:45 41.05428 20.29812 33984 ft 441 kts 349°
2026-04-23 13:46 41.11409 20.27972 33983 ft 442 kts 349°
2026-04-23 13:46 41.17397 20.26120 33984 ft 442 kts 350°
2026-04-23 13:47 41.23394 20.24268 33982 ft 443 kts 350°
2026-04-23 13:47 41.29393 20.22411 33993 ft 442 kts 351°
2026-04-23 13:48 41.35386 20.20558 33996 ft 442 kts 351°
2026-04-23 13:48 41.41379 20.18701 34006 ft 442 kts 351°
2026-04-23 13:49 41.47369 20.16837 34011 ft 442 kts 351°
2026-04-23 13:49 41.53351 20.14973 34022 ft 441 kts 352°
2026-04-23 13:50 41.59323 20.13115 34028 ft 440 kts 352°
2026-04-23 13:50 41.65285 20.11251 34026 ft 439 kts 352°
2026-04-23 13:51 41.71233 20.09395 34038 ft 439 kts 352°
2026-04-23 13:51 41.77176 20.07537 34042 ft 438 kts 352°
2026-04-23 13:52 41.83109 20.05669 34038 ft 438 kts 352°
2026-04-23 13:52 41.89037 20.03791 34039 ft 438 kts 352°
2026-04-23 13:53 41.94964 20.01917 34038 ft 437 kts 353°
2026-04-23 13:53 42.00891 20.00051 34038 ft 438 kts 353°
2026-04-23 13:54 42.06826 19.98178 34035 ft 438 kts 353°
2026-04-23 13:54 42.12758 19.96297 34034 ft 438 kts 353°
2026-04-23 13:55 42.18682 19.94405 34032 ft 437 kts 353°
2026-04-23 13:55 42.24616 19.92511 34039 ft 438 kts 353°
2026-04-23 13:56 42.30546 19.90618 34045 ft 438 kts 353°
2026-04-23 13:56 42.35480 19.89048 34049 ft 438 kts 353°
2026-04-23 13:57 42.41445 19.87136 34054 ft 438 kts 353°
2026-04-23 13:57 42.47373 19.85386 34048 ft 432 kts 359°
2026-04-23 13:58 42.53295 19.85383 34050 ft 424 kts
2026-04-23 13:58 42.59181 19.85767 34057 ft 424 kts
2026-04-23 13:59 42.65072 19.86129 34056 ft 424 kts
2026-04-23 13:59 42.70958 19.86492 34057 ft 424 kts
2026-04-23 14:00 42.75852 19.86796 34050 ft 423 kts
2026-04-23 14:00 42.82737 19.87235 34051 ft 424 kts
2026-04-23 14:01 42.88632 19.87609 34048 ft 424 kts
2026-04-23 14:01 42.94531 19.87977 34048 ft 425 kts
2026-04-23 14:02 43.00435 19.88342 34052 ft 425 kts
2026-04-23 14:02 43.06344 19.88717 34047 ft 425 kts
2026-04-23 14:03 43.12252 19.89102 34053 ft 425 kts
2026-04-23 14:03 43.18167 19.89485 34054 ft 425 kts
2026-04-23 14:04 43.24088 19.89855 34057 ft 426 kts
2026-04-23 14:04 43.27050 19.90041 34166 ft 426 kts
2026-04-23 14:04 43.30006 19.90224 34514 ft 425 kts
2026-04-23 14:04 43.32957 19.90405 34841 ft 424 kts
2026-04-23 14:05 43.35894 19.90589 35145 ft 423 kts
2026-04-23 14:05 43.38831 19.90777 35469 ft 421 kts
2026-04-23 14:05 43.41757 19.90968 35769 ft 420 kts
2026-04-23 14:05 43.44674 19.91162 36014 ft 420 kts
2026-04-23 14:06 43.47594 19.91353 36074 ft 420 kts
2026-04-23 14:06 43.53422 19.91729 36075 ft 419 kts
2026-04-23 14:07 43.59242 19.92099 36073 ft 419 kts
2026-04-23 14:07 43.67972 19.92660 36072 ft 418 kts
2026-04-23 14:08 43.73786 19.93040 36067 ft 418 kts
2026-04-23 14:08 43.79601 19.93419 36069 ft 419 kts
2026-04-23 14:09 43.85424 19.93793 36072 ft 419 kts
2026-04-23 14:09 43.91247 19.94169 36079 ft 419 kts
2026-04-23 14:10 43.97069 19.94550 36085 ft 419 kts
2026-04-23 14:10 44.02897 19.94927 36079 ft 419 kts
2026-04-23 14:11 44.08727 19.95302 36088 ft 419 kts
2026-04-23 14:11 44.14555 19.95688 36085 ft 419 kts
2026-04-23 14:12 44.20388 19.96075 36084 ft 420 kts
2026-04-23 14:12 44.26222 19.96464 36085 ft 420 kts
2026-04-23 14:13 44.32093 19.96856 36083 ft 420 kts
2026-04-23 14:13 44.37895 19.97244 36085 ft 420 kts
2026-04-23 14:14 44.43736 19.97628 36083 ft 420 kts
2026-04-23 14:14 44.49616 19.98016 36078 ft 420 kts
2026-04-23 14:15 44.55460 19.98408 36077 ft 420 kts
2026-04-23 14:15 44.61268 19.98791 36069 ft 421 kts
2026-04-23 14:16 44.67150 19.99181 36063 ft 421 kts
2026-04-23 14:16 44.72998 19.99567 36060 ft 421 kts
2026-04-23 14:17 44.78843 19.99961 36057 ft 421 kts
2026-04-23 14:17 44.84691 20.00363 36053 ft 421 kts
2026-04-23 14:18 44.90540 20.00751 36056 ft 421 kts
2026-04-23 14:18 44.96393 20.01145 36057 ft 421 kts
2026-04-23 14:19 45.02246 20.01539 36057 ft 421 kts
2026-04-23 14:19 45.08100 20.01931 36059 ft 421 kts
2026-04-23 14:20 45.13952 20.02333 36058 ft 421 kts
2026-04-23 14:20 45.19806 20.02735 36057 ft 421 kts
2026-04-23 14:21 45.25664 20.03136 36055 ft 421 kts
2026-04-23 14:21 45.31520 20.03538 36055 ft 421 kts
2026-04-23 14:22 45.37378 20.03939 36054 ft 421 kts
2026-04-23 14:22 45.43231 20.04338 36049 ft 421 kts
2026-04-23 14:23 45.49086 20.04739 36046 ft 421 kts
2026-04-23 14:23 45.54946 20.05138 36051 ft 421 kts
2026-04-23 14:24 45.60807 20.05536 36045 ft 421 kts
2026-04-23 14:24 45.66665 20.05947 36043 ft 421 kts
2026-04-23 14:25 45.72481 20.06361 36040 ft 421 kts
2026-04-23 14:25 45.78373 20.06767 36042 ft 421 kts
2026-04-23 14:26 45.84229 20.07167 36042 ft 421 kts
2026-04-23 14:26 45.90081 20.07576 36043 ft 421 kts
2026-04-23 14:27 45.95935 20.07989 36032 ft 421 kts
2026-04-23 14:27 46.01786 20.08404 36032 ft 421 kts
2026-04-23 14:28 46.07640 20.08814 36032 ft 421 kts
2026-04-23 14:28 46.13494 20.09223 36026 ft 421 kts
2026-04-23 14:29 46.19340 20.09689 36029 ft 421 kts
2026-04-23 14:29 46.25172 20.10412 36029 ft 420 kts
2026-04-23 14:30 46.30997 20.11210 36023 ft 420 kts
2026-04-23 14:30 46.36822 20.11972 36020 ft 420 kts
2026-04-23 14:31 46.42650 20.12692 36017 ft 420 kts
2026-04-23 14:31 46.48474 20.13405 36018 ft 420 kts
2026-04-23 14:32 46.54297 20.14124 36018 ft 420 kts
2026-04-23 14:32 46.60114 20.14856 36021 ft 420 kts
2026-04-23 14:33 46.65934 20.15584 36020 ft 419 kts
2026-04-23 14:33 46.70769 20.16189 36020 ft 419 kts
2026-04-23 14:34 46.76578 20.16919 36023 ft 419 kts
2026-04-23 14:34 46.82380 20.17660 36017 ft 418 kts
2026-04-23 14:35 46.88178 20.18401 36020 ft 418 kts
2026-04-23 14:35 46.93974 20.19128 36019 ft 418 kts
2026-04-23 14:36 46.99764 20.19858 36017 ft 417 kts
2026-04-23 14:36 47.05547 20.20598 36020 ft 417 kts
2026-04-23 14:37 47.11328 20.21339 36019 ft 417 kts
2026-04-23 14:37 47.17099 20.22075 36020 ft 417 kts
2026-04-23 14:38 47.22880 20.22815 36018 ft 416 kts
2026-04-23 14:38 47.28648 20.23554 36016 ft 416 kts
2026-04-23 14:39 47.34411 20.24293 36007 ft 416 kts
2026-04-23 14:39 47.40170 20.25032 36005 ft 415 kts
2026-04-23 14:40 47.45926 20.25776 35995 ft 415 kts
2026-04-23 14:40 47.51673 20.26527 35990 ft 414 kts
2026-04-23 14:41 47.57415 20.27279 35986 ft 414 kts
2026-04-23 14:41 47.63159 20.28024 35979 ft 414 kts
2026-04-23 14:42 47.68898 20.28769 35973 ft 414 kts
2026-04-23 14:42 47.74636 20.29520 35975 ft 414 kts
2026-04-23 14:43 47.80375 20.30273 35970 ft 414 kts
2026-04-23 14:43 47.86116 20.31026 35973 ft 414 kts
2026-04-23 14:44 47.91854 20.31788 35968 ft 414 kts
2026-04-23 14:44 47.97590 20.32541 35965 ft 414 kts
2026-04-23 14:45 48.03368 20.33304 35967 ft 414 kts
2026-04-23 14:45 48.09061 20.34055 35965 ft 414 kts
2026-04-23 14:46 48.14795 20.34809 35967 ft 413 kts
2026-04-23 14:46 48.20558 20.35578 35967 ft 413 kts
2026-04-23 14:47 48.26267 20.36350 35996 ft 412 kts
2026-04-23 14:47 48.29064 20.36721 36494 ft 406 kts
2026-04-23 14:47 48.31907 20.37120 36866 ft 403 kts
2026-04-23 14:48 48.37367 20.39062 36946 ft 403 kts 14°
2026-04-23 14:48 48.42786 20.41216 36945 ft 402 kts 14°
2026-04-23 14:49 48.48195 20.43368 36942 ft 402 kts 14°
2026-04-23 14:49 48.53598 20.45510 36944 ft 401 kts 14°
2026-04-23 14:50 48.58994 20.47648 36947 ft 401 kts 14°
2026-04-23 14:50 48.64389 20.49789 36959 ft 401 kts 14°
2026-04-23 14:51 48.69782 20.51933 36965 ft 401 kts 14°
2026-04-23 14:51 48.75168 20.54084 36970 ft 400 kts 14°
2026-04-23 14:52 48.80549 20.56249 36977 ft 400 kts 14°
2026-04-23 14:52 48.85921 20.58413 36983 ft 399 kts 14°
2026-04-23 14:53 48.91287 20.60565 36983 ft 398 kts 14°
2026-04-23 14:53 48.96641 20.62717 36988 ft 398 kts 14°
2026-04-23 14:54 49.01976 20.64867 36987 ft 397 kts 14°
2026-04-23 14:54 49.07322 20.67027 36987 ft 397 kts 14°
2026-04-23 14:55 49.12653 20.69194 36994 ft 396 kts 14°
2026-04-23 14:55 49.17974 20.71361 36992 ft 395 kts 14°
2026-04-23 14:56 49.23282 20.73529 36994 ft 395 kts 14°
2026-04-23 14:56 49.28582 20.75692 36995 ft 394 kts 14°
2026-04-23 14:57 49.33895 20.77866 36971 ft 400 kts 14°
2026-04-23 14:57 49.39349 20.80106 36974 ft 411 kts 14°
2026-04-23 14:58 49.44911 20.82384 36973 ft 415 kts 15°
2026-04-23 14:58 49.50498 20.84685 36981 ft 416 kts 15°
2026-04-23 14:59 49.56079 20.86989 36978 ft 415 kts 15°
2026-04-23 14:59 49.61663 20.89303 36979 ft 416 kts 15°
2026-04-23 15:00 49.67246 20.91631 36986 ft 415 kts 15°
2026-04-23 15:00 49.72822 20.93954 36992 ft 415 kts 15°
2026-04-23 15:01 49.78398 20.96267 36995 ft 414 kts 15°
2026-04-23 15:01 49.83965 20.98585 36998 ft 414 kts 15°
2026-04-23 15:02 49.89516 21.00912 36998 ft 413 kts 15°
2026-04-23 15:02 49.95056 21.03247 36996 ft 412 kts 15°
2026-04-23 15:03 50.00594 21.05578 36998 ft 412 kts 15°
2026-04-23 15:03 50.06117 21.07909 36994 ft 411 kts 15°
2026-04-23 15:04 50.11631 21.10243 36991 ft 410 kts 15°
2026-04-23 15:04 50.17136 21.12583 36988 ft 410 kts 15°
2026-04-23 15:05 50.22630 21.14920 36988 ft 409 kts 15°
2026-04-23 15:05 50.28112 21.17244 36989 ft 408 kts 15°
2026-04-23 15:06 50.33587 21.19583 36987 ft 407 kts 15°
2026-04-23 15:06 50.39052 21.21931 36988 ft 407 kts 15°
2026-04-23 15:07 50.44508 21.24272 36985 ft 406 kts 14°
2026-04-23 15:07 50.49952 21.26608 36981 ft 405 kts 15°
2026-04-23 15:08 50.55387 21.28952 36986 ft 405 kts 15°
2026-04-23 15:09 50.63520 21.32478 36984 ft 403 kts 15°
2026-04-23 15:09 50.68928 21.34827 36977 ft 403 kts 14°
2026-04-23 15:10 50.73413 21.36771 36972 ft 402 kts 14°
2026-04-23 15:10 50.79712 21.39513 36970 ft 401 kts 14°
2026-04-23 15:11 50.85085 21.41862 36981 ft 400 kts 14°
2026-04-23 15:11 50.90453 21.44215 36964 ft 400 kts 14°
2026-04-23 15:12 50.94903 21.46167 36963 ft 399 kts 14°
2026-04-23 15:12 51.00249 21.48516 36962 ft 398 kts 14°
2026-04-23 15:13 51.05589 21.50875 36961 ft 398 kts 14°
2026-04-23 15:13 51.10920 21.53228 36963 ft 397 kts 14°
2026-04-23 15:14 51.16247 21.55582 36960 ft 397 kts 14°
2026-04-23 15:14 51.21565 21.57949 36962 ft 397 kts 14°
2026-04-23 15:15 51.26877 21.60317 36962 ft 396 kts 14°
2026-04-23 15:15 51.32186 21.62691 36962 ft 396 kts 14°
2026-04-23 15:16 51.37487 21.65060 36960 ft 395 kts 14°
2026-04-23 15:16 51.42784 21.67437 36961 ft 395 kts 14°
2026-04-23 15:17 51.48080 21.69810 36957 ft 395 kts 14°
2026-04-23 15:17 51.53367 21.72192 36956 ft 394 kts 14°
2026-04-23 15:18 51.58651 21.74580 36957 ft 394 kts 14°
2026-04-23 15:18 51.63927 21.76965 36956 ft 394 kts 14°
2026-04-23 15:19 51.69196 21.79362 36954 ft 393 kts 14°
2026-04-23 15:19 51.74462 21.81759 36954 ft 393 kts 14°
2026-04-23 15:20 51.79725 21.84164 36951 ft 393 kts 14°
2026-04-23 15:20 51.84982 21.86568 36956 ft 392 kts 14°
2026-04-23 15:21 51.90233 21.88976 36955 ft 392 kts 14°
2026-04-23 15:21 51.95482 21.91392 36955 ft 392 kts 14°
2026-04-23 15:22 52.00729 21.93808 36954 ft 392 kts 14°
2026-04-23 15:22 52.05967 21.96226 36953 ft 391 kts 14°
2026-04-23 15:23 52.11198 21.98642 36955 ft 391 kts 14°
2026-04-23 15:23 52.16426 22.01064 36957 ft 390 kts 14°
2026-04-23 15:24 52.21650 22.03483 36955 ft 390 kts 14°
2026-04-23 15:24 52.26864 22.05911 36952 ft 389 kts 14°
2026-04-23 15:25 52.32071 22.08346 36955 ft 389 kts 14°
2026-04-23 15:25 52.37275 22.10786 36956 ft 389 kts 14°
2026-04-23 15:26 52.42474 22.13230 36953 ft 388 kts 14°
2026-04-23 15:26 52.47664 22.15682 36951 ft 388 kts 14°
2026-04-23 15:27 52.52855 22.18135 36952 ft 388 kts 14°
2026-04-23 15:27 52.58040 22.20585 36955 ft 388 kts 14°
2026-04-23 15:28 52.63222 22.23031 36950 ft 388 kts 14°
2026-04-23 15:28 52.68401 22.25499 36945 ft 387 kts 14°
2026-04-23 15:29 52.73579 22.27977 36944 ft 387 kts 14°
2026-04-23 15:29 52.78744 22.30444 36928 ft 381 kts 13°
2026-04-23 15:30 52.83730 22.32838 36931 ft 370 kts 13°
2026-04-23 15:30 52.88660 22.35198 36931 ft 368 kts 13°
2026-04-23 15:31 52.93585 22.37557 36931 ft 368 kts 13°
2026-04-23 15:31 52.98505 22.39933 36929 ft 368 kts 13°
2026-04-23 15:32 53.03430 22.42310 36932 ft 369 kts 13°
2026-04-23 15:32 53.08349 22.44695 36939 ft 369 kts 13°
2026-04-23 15:33 53.13278 22.47091 36934 ft 369 kts 13°
2026-04-23 15:33 53.18209 22.49488 36943 ft 369 kts 13°
2026-04-23 15:34 53.23140 22.51889 36944 ft 369 kts 13°
2026-04-23 15:34 53.28102 22.54320 36945 ft 369 kts 13°
2026-04-23 15:35 53.32997 22.56728 36948 ft 369 kts 13°
2026-04-23 15:35 53.37926 22.59160 36943 ft 369 kts 13°
2026-04-23 15:36 53.42878 22.61598 36929 ft 364 kts 13°
2026-04-23 15:36 53.45244 22.62771 36925 ft 353 kts 13°
2026-04-23 15:36 53.47587 22.63938 36929 ft 343 kts 13°
2026-04-23 15:37 53.52072 22.66162 36927 ft 336 kts 13°
2026-04-23 15:37 53.55823 22.68012 36930 ft 335 kts 13°
2026-04-23 15:38 53.61025 22.70585 36925 ft 335 kts 13°
2026-04-23 15:38 53.65495 22.72822 36926 ft 335 kts 13°
2026-04-23 15:39 53.69966 22.75058 36931 ft 335 kts 13°
2026-04-23 15:39 53.74443 22.77292 36928 ft 336 kts 13°
2026-04-23 15:40 53.78922 22.79534 36932 ft 336 kts 13°
2026-04-23 15:40 53.83433 22.81808 36934 ft 336 kts 13°
2026-04-23 15:41 53.87882 22.84061 36934 ft 336 kts 13°
2026-04-23 15:41 53.92363 22.86325 36934 ft 336 kts 13°
2026-04-23 15:42 53.96874 22.88607 36933 ft 336 kts 13°
2026-04-23 15:42 54.01358 22.90878 36927 ft 336 kts 13°
2026-04-23 15:43 54.05842 22.93158 36930 ft 336 kts 13°
2026-04-23 15:43 54.10330 22.95439 36924 ft 336 kts 13°
2026-04-23 15:44 54.14814 22.97735 36930 ft 337 kts 13°
2026-04-23 15:44 54.19301 23.00029 36927 ft 337 kts 13°
2026-04-23 15:45 54.23791 23.02337 36924 ft 337 kts 13°
2026-04-23 15:45 54.28279 23.04647 36922 ft 337 kts 13°
2026-04-23 15:46 54.32811 23.06587 36922 ft 335 kts
2026-04-23 15:46 54.37394 23.08053 36921 ft 335 kts
2026-04-23 15:47 54.41978 23.09529 36925 ft 335 kts
2026-04-23 15:47 54.46571 23.11011 36616 ft 335 kts
2026-04-23 15:47 54.48854 23.11749 36358 ft 333 kts
2026-04-23 15:48 54.51129 23.12479 36104 ft 332 kts
2026-04-23 15:48 54.53398 23.13211 35852 ft 331 kts
2026-04-23 15:48 54.55654 23.13936 35604 ft 330 kts
2026-04-23 15:48 54.57905 23.14658 35360 ft 328 kts
2026-04-23 15:49 54.60148 23.15384 35112 ft 327 kts
2026-04-23 15:49 54.62377 23.16109 34926 ft 326 kts
2026-04-23 15:49 54.64598 23.16835 34892 ft 325 kts
2026-04-23 15:50 54.69043 23.18291 34899 ft 325 kts
2026-04-23 15:50 54.72747 23.19495 34897 ft 325 kts
2026-04-23 15:51 54.77199 23.20943 34901 ft 326 kts
2026-04-23 15:51 54.81652 23.22413 34893 ft 325 kts
2026-04-23 15:52 54.85969 23.23849 34894 ft 309 kts
2026-04-23 15:52 54.90240 23.25257 34897 ft 314 kts
2026-04-23 15:53 54.94539 23.26666 34902 ft 315 kts
2026-04-23 15:53 54.98848 23.28077 34899 ft 315 kts
2026-04-23 15:54 55.03158 23.29505 34904 ft 315 kts
2026-04-23 15:54 55.07475 23.30943 34902 ft 316 kts
2026-04-23 15:55 55.11790 23.32393 34904 ft 316 kts
2026-04-23 15:55 55.16112 23.33848 34903 ft 316 kts
2026-04-23 15:56 55.20439 23.35289 34905 ft 317 kts
2026-04-23 15:56 55.24831 23.36748 34899 ft 331 kts
2026-04-23 15:56 55.27132 23.37510 34900 ft 342 kts
2026-04-23 15:57 55.29509 23.38300 34900 ft 353 kts
2026-04-23 15:57 55.34411 23.39956 34900 ft 362 kts
2026-04-23 15:58 55.39374 23.41653 34903 ft 364 kts
2026-04-23 15:58 55.44345 23.43344 34901 ft 364 kts
2026-04-23 15:59 55.49323 23.45024 34903 ft 365 kts
2026-04-23 15:59 55.54308 23.46718 34903 ft 365 kts
2026-04-23 16:00 55.59291 23.48423 34909 ft 365 kts
2026-04-23 16:00 55.64280 23.50129 34907 ft 365 kts
2026-04-23 16:01 55.69276 23.51839 34905 ft 366 kts
2026-04-23 16:01 55.74281 23.53558 34912 ft 366 kts
2026-04-23 16:02 55.79287 23.55287 34921 ft 367 kts
2026-04-23 16:02 55.84298 23.57016 34921 ft 367 kts
2026-04-23 16:03 55.89318 23.58756 34910 ft 368 kts
2026-04-23 16:03 55.94341 23.60502 34909 ft 368 kts
2026-04-23 16:04 55.99367 23.62257 34906 ft 368 kts
2026-04-23 16:04 56.04402 23.64010 34917 ft 369 kts
2026-04-23 16:05 56.08622 23.65489 34907 ft 369 kts
2026-04-23 16:05 56.14481 23.67544 34910 ft 369 kts
2026-04-23 16:06 56.19561 23.69335 34908 ft 370 kts
2026-04-23 16:06 56.24577 23.71108 34921 ft 370 kts
2026-04-23 16:07 56.29662 23.72911 34921 ft 370 kts
2026-04-23 16:07 56.34715 23.74707 34921 ft 370 kts
2026-04-23 16:08 56.39771 23.76546 34914 ft 371 kts
2026-04-23 16:08 56.44811 23.78552 34920 ft 371 kts
2026-04-23 16:09 56.49846 23.80605 34928 ft 371 kts
2026-04-23 16:09 56.54887 23.82635 34927 ft 371 kts
2026-04-23 16:10 56.59931 23.84646 34927 ft 371 kts
2026-04-23 16:10 56.64985 23.86533 34928 ft 371 kts
2026-04-23 16:11 56.70047 23.88349 34934 ft 371 kts
2026-04-23 16:11 56.75110 23.90196 34951 ft 371 kts
2026-04-23 16:12 56.80164 23.92072 34943 ft 371 kts
2026-04-23 16:12 56.85225 23.93964 34951 ft 371 kts
2026-04-23 16:13 56.90284 23.95850 34951 ft 371 kts
2026-04-23 16:13 56.97887 23.98536 34952 ft 371 kts
2026-04-23 16:14 57.02971 24.00190 34950 ft 371 kts
2026-04-23 16:14 57.08054 24.01854 34946 ft 371 kts
2026-04-23 16:15 57.13134 24.03553 34936 ft 371 kts
2026-04-23 16:15 57.18219 24.05272 34931 ft 371 kts
2026-04-23 16:16 57.23304 24.06989 34926 ft 372 kts
2026-04-23 16:16 57.28391 24.08713 34927 ft 372 kts
2026-04-23 16:17 57.33517 24.10451 34921 ft 372 kts
2026-04-23 16:17 57.38605 24.12176 34923 ft 372 kts
2026-04-23 16:18 57.43704 24.13912 34921 ft 372 kts
2026-04-23 16:18 57.48802 24.15645 34924 ft 372 kts
2026-04-23 16:19 57.53897 24.17397 34925 ft 372 kts
2026-04-23 16:19 57.58991 24.19156 34924 ft 372 kts
2026-04-23 16:20 57.64088 24.20915 34924 ft 372 kts
2026-04-23 16:20 57.69182 24.22687 34919 ft 372 kts
2026-04-23 16:21 57.74274 24.24462 34927 ft 372 kts
2026-04-23 16:21 57.79366 24.26231 34927 ft 372 kts
2026-04-23 16:22 57.84456 24.27996 34928 ft 372 kts
2026-04-23 16:22 57.89541 24.29776 34930 ft 372 kts
2026-04-23 16:23 57.94623 24.31528 34920 ft 371 kts
2026-04-23 16:23 57.99703 24.33266 34918 ft 371 kts
2026-04-23 16:24 58.04774 24.34993 34930 ft 370 kts
2026-04-23 16:24 58.09846 24.36747 34923 ft 370 kts
2026-04-23 16:25 58.14911 24.38505 34917 ft 370 kts
2026-04-23 16:25 58.19968 24.40267 34917 ft 370 kts
2026-04-23 16:26 58.24209 24.41738 34911 ft 369 kts
2026-04-23 16:26 58.30082 24.43783 34905 ft 369 kts
2026-04-23 16:27 58.34311 24.45267 34906 ft 369 kts
2026-04-23 16:27 58.39359 24.47033 34909 ft 369 kts
2026-04-23 16:28 58.44407 24.48807 34899 ft 369 kts
2026-04-23 16:28 58.49440 24.50595 34906 ft 369 kts
2026-04-23 16:29 58.54492 24.52381 34897 ft 368 kts
2026-04-23 16:29 58.59533 24.54171 34905 ft 368 kts
2026-04-23 16:30 58.64575 24.55964 34906 ft 368 kts
2026-04-23 16:30 58.69615 24.57760 34910 ft 368 kts
2026-04-23 16:31 58.74651 24.59562 34907 ft 368 kts
2026-04-23 16:31 58.79686 24.61369 34906 ft 368 kts
2026-04-23 16:32 58.84716 24.63174 34906 ft 368 kts
2026-04-23 16:32 58.89744 24.64987 34911 ft 367 kts
2026-04-23 16:33 58.94767 24.66809 34909 ft 367 kts
2026-04-23 16:33 58.99790 24.68626 34913 ft 367 kts
2026-04-23 16:34 59.04815 24.69991 34250 ft 365 kts
2026-04-23 16:34 59.07382 24.70016 32739 ft 373 kts 359°
2026-04-23 16:34 59.10000 24.69941 31380 ft 377 kts 359°
2026-04-23 16:35 59.12612 24.69822 30289 ft 374 kts 359°
2026-04-23 16:35 59.15193 24.69704 29179 ft 369 kts 359°
2026-04-23 16:35 59.17737 24.69611 28081 ft 363 kts 359°
2026-04-23 16:35 59.20244 24.69539 27001 ft 357 kts 359°
2026-04-23 16:36 59.22711 24.69479 25981 ft 352 kts 358°
2026-04-23 16:36 59.25144 24.69420 24964 ft 347 kts 358°
2026-04-23 16:36 59.27543 24.69360 23984 ft 343 kts 358°
2026-04-23 16:36 59.29912 24.69305 22954 ft 339 kts 358°
2026-04-23 16:37 59.32255 24.69253 21880 ft 334 kts 358°
2026-04-23 16:37 59.34562 24.69201 20883 ft 329 kts 358°
2026-04-23 16:37 59.36839 24.69147 19934 ft 325 kts 358°
2026-04-23 16:37 59.39087 24.69091 19031 ft 321 kts 358°
2026-04-23 16:38 59.41302 24.69032 18154 ft 317 kts 358°
2026-04-23 16:38 59.43453 24.68975 17680 ft 299 kts 358°
2026-04-23 16:38 59.45477 24.68922 17309 ft 287 kts 358°
2026-04-23 16:38 59.47462 24.68868 16919 ft 283 kts 358°
2026-04-23 16:39 59.49418 24.68817 16537 ft 280 kts 358°
2026-04-23 16:39 59.51351 24.68766 16163 ft 277 kts 358°
2026-04-23 16:39 59.53269 24.68718 15785 ft 274 kts 358°
2026-04-23 16:39 59.55165 24.68670 15413 ft 272 kts 358°
2026-04-23 16:40 59.57059 24.68625 15040 ft 271 kts 358°
2026-04-23 16:40 59.58938 24.68581 14663 ft 270 kts 358°
2026-04-23 16:40 59.60810 24.68537 14296 ft 269 kts 358°
2026-04-23 16:40 59.62683 24.68488 13923 ft 269 kts 357°
2026-04-23 16:41 59.64552 24.68436 13536 ft 269 kts 357°
2026-04-23 16:41 59.66417 24.68387 13140 ft 268 kts 358°
2026-04-23 16:41 59.68279 24.68341 12759 ft 267 kts 358°
2026-04-23 16:41 59.70132 24.68293 12399 ft 266 kts 358°
2026-04-23 16:42 59.72006 24.68243 12016 ft 265 kts 358°
2026-04-23 16:42 59.73849 24.68196 11642 ft 265 kts 358°
2026-04-23 16:42 59.75689 24.68150 11278 ft 265 kts 358°
2026-04-23 16:42 59.77530 24.68104 10912 ft 264 kts 358°
2026-04-23 16:43 59.79368 24.68054 10545 ft 264 kts 358°
2026-04-23 16:43 59.81202 24.68005 10282 ft 260 kts 358°
2026-04-23 16:43 59.82980 24.67963 10158 ft 252 kts 358°
2026-04-23 16:43 59.84716 24.67920 9960 ft 247 kts 358°
2026-04-23 16:44 59.86369 24.67872 9848 ft 244 kts 358°
2026-04-23 16:44 59.88065 24.67822 9705 ft 243 kts 358°
2026-04-23 16:44 59.89757 24.67775 9583 ft 243 kts 358°
2026-04-23 16:44 59.91455 24.67731 9135 ft 248 kts 358°
2026-04-23 16:45 59.93183 24.67687 8834 ft 246 kts 358°
2026-04-23 16:45 59.94886 24.67646 8525 ft 244 kts 358°
2026-04-23 16:45 59.96587 24.67605 8172 ft 244 kts 358°
2026-04-23 16:45 59.98275 24.67564 7632 ft 242 kts 359°
2026-04-23 16:46 59.99956 24.67522 7031 ft 242 kts 359°
2026-04-23 16:46 60.01638 24.67477 6429 ft 241 kts 359°
2026-04-23 16:46 60.03316 24.67434 5836 ft 241 kts 359°
2026-04-23 16:46 60.04985 24.67391 5265 ft 239 kts 359°
2026-04-23 16:47 60.06645 24.67351 4739 ft 236 kts 359°
2026-04-23 16:47 60.08281 24.67311 4190 ft 234 kts 358°
2026-04-23 16:47 60.09883 24.67270 3877 ft 224 kts 358°
2026-04-23 16:47 60.11408 24.67228 3822 ft 213 kts 358°
2026-04-23 16:48 60.12848 24.67186 3768 ft 201 kts 358°
2026-04-23 16:48 60.14213 24.67148 3699 ft 191 kts 358°
2026-04-23 16:48 60.15512 24.67113 3624 ft 183 kts 357°
2026-04-23 16:48 60.16751 24.67080 3541 ft 174 kts 358°
2026-04-23 16:49 60.17539 24.67060 3493 ft 168 kts 357°
2026-04-23 16:49 60.19065 24.67029 3397 ft 161 kts 359°
2026-04-23 16:49 60.20174 24.67425 3324 ft 165 kts 14°
2026-04-23 16:49 60.21191 24.68550 3144 ft 174 kts 36°
2026-04-23 16:50 60.22060 24.70277 2923 ft 175 kts 38°
2026-04-23 16:50 60.22884 24.72027 2744 ft 169 kts 39°
2026-04-23 16:50 60.23676 24.73738 2518 ft 165 kts 39°
2026-04-23 16:50 60.24450 24.75419 2291 ft 162 kts 39°
2026-04-23 16:51 60.25198 24.77052 2080 ft 153 kts 39°
2026-04-23 16:51 60.25897 24.78581 1866 ft 145 kts 37°
2026-04-23 16:51 60.26576 24.80058 1661 ft 144 kts 37°
2026-04-23 16:51 60.27231 24.81496 1506 ft 136 kts 37°
2026-04-23 16:52 60.27869 24.82894 1258 ft 135 kts 39°
2026-04-23 16:52 60.28510 24.84285 1060 ft 135 kts 40°
2026-04-23 16:52 60.29148 24.85695 817 ft 136 kts 39°
2026-04-23 16:52 60.29798 24.87097 607 ft 137 kts 42°
2026-04-23 16:53 60.30441 24.88526 403 ft 138 kts 43°
2026-04-23 16:53 60.31090 24.89938 238 ft 138 kts 43°
2026-04-23 16:53 60.31716 24.91330 153 ft 123 kts 39°
2026-04-23 16:53 60.32209 24.92394 165 ft 81 kts 47°
2026-04-23 16:54 60.32494 24.93019 175 ft 52 kts 49°
2026-04-23 16:54 60.32735 24.93554 181 ft 52 kts 48°
2026-04-23 16:54 60.32969 24.94072 195 ft 40 kts 47°
2026-04-23 16:54 60.33051 24.94402 188 ft 26 kts 91°
2026-04-23 16:55 60.33024 24.94670 181 ft 17 kts 133°
2026-04-23 16:55 60.32961 24.94830 177 ft 12 kts 85°
2026-04-23 16:55 60.33021 24.94977 176 ft 15 kts 47°
2026-04-23 16:55 60.33096 24.95143 178 ft 17 kts 47°
2026-04-23 16:56 60.33178 24.95324 179 ft 18 kts 47°
2026-04-23 16:56 60.33193 24.95541 182 ft 18 kts 127°
2026-04-23 16:56 60.33091 24.95735 180 ft 22 kts 137°
2026-04-23 16:56 60.32960 24.95900 178 ft 18 kts 149°
2026-04-23 16:57 60.32902 24.96035 175 ft 14 kts 81°
2026-04-23 16:57 60.32876 24.96216 173 ft 17 kts 144°
2026-04-23 16:57 60.32765 24.96344 172 ft 20 kts 151°
2026-04-23 16:57 60.32633 24.96496 172 ft 23 kts 150°
2026-04-23 16:58 60.32488 24.96660 175 ft 24 kts 152°
2026-04-23 16:58 60.32354 24.96799 167 ft 20 kts 153°
2026-04-23 16:58 60.32221 24.96936 165 ft 21 kts 153°
2026-04-23 16:58 60.32092 24.97066 166 ft 21 kts 154°
2026-04-23 16:59 60.31973 24.97191 165 ft 12 kts 151°
2026-04-23 16:59 60.31919 24.97143 165 ft 8 kts 224°
2026-04-23 16:59 60.31884 24.97078 166 ft 7 kts 238°
2026-04-23 16:59 60.31869 24.97019 166 ft 2 kts 242°
2026-04-23 17:00 60.31863 24.96997 166 ft 0 kts 242°